Regional Weather Roundup
Issued by NWS

Home | Current Version | Previous Version | Text Only | Print | Product List | Glossary Off
Versions: 1 2 3 4 5 6 7 8 9 10 11 12 13 14 15 16 17 18 19 20 21 22 23 24 25 26 27 28 29 30 31 32 33 34 35 36 37 38 39 40 41 42 43 44 45 46 47 48 49 50

000
ASUS43 KLSX 230807
RWRMO

WEATHER SUMMARY FOR MISSOURI
NATIONAL WEATHER SERVICE SPRINGFIELD MO
200 AM CST SUN NOV 23 2014

NOTE: "FAIR" INDICATES FEW OR NO CLOUDS BELOW 12,000 FEET WITH NO
       SIGNIFICANT WEATHER AND/OR OBSTRUCTIONS TO VISIBILITY.
       CURRENT SKY AND/OR WEATHER CONDITIONS ARE NOT AVAILABLE FOR
       CHILLICOTHE AND FARMINGTON.

MOZ001>031-035>038-043-044-053-054-230900-
...NORTHERN AND WESTERN MISSOURI...

CITY           SKY/WX    TMP DP  RH WIND       PRES   REMARKS
KANSAS CTY INT CLOUDY    54  51  90 S10       29.63F
KANSAS C DTWN  CLOUDY    55  50  83 S8        29.64F
ST JOSEPH      CLOUDY    55  51  86 S14       29.62F
CHILLICOTHE      N/A     54  50  86 S8        29.68F
KIRKSVILLE     CLOUDY    54  51  90 S12       29.70F

$$
MOZ066>068-077>081-088>096-101>105-230900-
...SOUTHWEST MISSOURI...

CITY           SKY/WX    TMP DP  RH WIND       PRES   REMARKS
SPRINGFIELD    MOCLDY    54  51  90 SE15      29.68F
JOPLIN         CLOUDY    57  53  86 S12       29.66F

$$
MOZ032>034-039>042-045>050-055>058-069>072-230900-
...CENTRAL MISSOURI...

CITY           SKY/WX    TMP DP  RH WIND       PRES   REMARKS
COLUMBIA       CLOUDY    52  49  89 SE9       29.72F
JEFFERSON CITY CLOUDY    53  48  83 E7        29.74F
ROLLA          CLOUDY    53  47  79 S17       29.75F
SEDALIA        CLOUDY    56  50  80 S14       29.69F
WHITEMAN AFB   CLOUDY    53  50  88 S10       29.67F
WARRENSBURG    CLOUDY    50  48  93 SE6       29.67F
OSAGE BEACH    CLOUDY    55  48  76 S13       29.74S

$$
MOZ051-052-059>065-230900-
...EAST CENTRAL MISSOURI...

CITY           SKY/WX    TMP DP  RH WIND       PRES   REMARKS
ST LOUIS INTL  CLOUDY    57  44  62 S13       29.81F
SPIRIT OF STL  CLOUDY    55  45  68 S9        29.79F
ST CHARLES     CLOUDY    51  47  86 SE7       29.80F

$$
MOZ072>076-082>087-097>100-106>115-230900-
...SOUTH CENTRAL AND SOUTHEAST MISSOURI...

CITY           SKY/WX    TMP DP  RH WIND       PRES   REMARKS
CAPE GIRARDEAU MOCLDY    50  42  74 SE8       29.89F
FARMINGTON     CLEAR     48  43  81 SE8       29.86F
POPLAR BLUFF   CLOUDY    52  43  71 S6        29.86S
WEST PLAINS    CLOUDY    52  46  80 SE12G18   29.79F

$$



USA.gov is the U.S. government's official web portal to all federal, state and local government web resources and services.